Date String (YYYY-MM-DD hh:mm:ss) UTC,Instrument flags,absolute air pressure of the measurement (hPa),sample flow rate (lpm),inlet stack bypass flow (lpm),air temperature of the measurement (°C),ambient temperature measured by the external sensor (°C),aerosol sample conditioner tube jacket temperature (°C),OPC LED temperature (°C),internal box temperature (°C),relative humidity of the measurement (%),span deviation,mass concentration of particles derived from Lorenz-Mie calculation of OPC scattering (μg/m³),mass concentration of particles derived from Lorenz-Mie calculation of OPC scattering (μg/m³),mass concentration of particles derived from Lorenz-Mie calculation of OPC scattering (μg/m³)
DateTimeUTC,F1_M11,P_M11,Q1_M11,Q2_M11,T1_M11,T2_M11,T3_M11,T4_M11,T5_M11,U1_M11,ZSPAN_M11,X2_M11,X0_M11,X1_M11
2024-01-19 19:00:00,SystemResetWarning,0834.7,5.00,000.00,019.2,018.7,000.0,027.5,020.5,11.7,0002.6,0010.04,0017.87,0009.03
2024-01-19 19:01:00,SystemResetWarning,0835.1,4.99,000.00,019.3,018.7,000.0,027.5,020.6,11.7,0002.8,0010.09,0018.40,0009.03
2024-01-19 19:02:00,SystemResetWarning,0835.4,4.99,000.00,019.3,018.7,000.0,027.5,020.6,11.8,0002.9,0010.15,0018.85,0009.03
2024-01-19 19:03:00,SystemResetWarning,0835.3,5.00,000.00,019.3,018.7,000.0,027.5,020.6,11.8,0002.8,0010.20,0018.62,0009.04
2024-01-19 19:04:00,SystemResetWarning,0835.3,4.99,000.00,019.3,018.7,000.0,027.5,020.6,11.7,0002.3,0010.21,0019.42,0009.06
2024-01-19 19:05:00,SystemResetWarning,0834.8,5.01,000.00,019.3,018.7,000.0,027.5,020.6,11.7,0001.9,0010.24,0019.32,0009.06
2024-01-19 19:06:00,SystemResetWarning,0834.9,5.01,000.00,019.3,018.7,000.0,027.5,020.6,11.6,0002.1,0010.31,0019.43,0009.06
2024-01-19 19:07:00,SystemResetWarning,0834.8,5.00,000.00,019.3,018.7,000.0,027.5,020.6,11.8,0002.3,0010.33,0018.87,0009.06
2024-01-19 19:08:00,SystemResetWarning,0834.7,5.00,000.00,019.3,018.7,000.0,027.6,020.6,11.9,0002.4,0010.33,0018.76,0009.04
2024-01-19 19:09:00,SystemResetWarning,0834.7,4.99,000.00,019.3,018.7,000.0,027.6,020.6,11.7,0002.2,0010.31,0018.69,0009.03
2024-01-19 19:10:00,SystemResetWarning,0835.0,4.99,000.00,019.3,018.7,000.0,027.6,020.6,11.8,0001.7,0010.29,0018.54,0009.03
2024-01-19 19:11:00,SystemResetWarning,0834.9,5.00,000.00,019.3,018.7,000.0,027.6,020.6,11.7,0001.6,0010.24,0018.67,0009.06
2024-01-19 19:12:00,SystemResetWarning,0834.5,5.01,000.00,019.3,018.7,000.0,027.6,020.7,11.9,0001.5,0010.18,0018.27,0009.06
2024-01-19 19:13:00,SystemResetWarning,0834.5,5.01,000.00,019.3,018.8,000.0,027.6,020.7,11.9,0001.5,0010.10,0017.25,0009.06
2024-01-19 19:14:00,SystemResetWarning,0834.5,5.00,000.00,019.3,018.8,000.0,027.6,020.7,11.9,0001.6,0010.12,0018.05,0009.06
2024-01-19 19:15:00,SystemResetWarning,0834.5,5.00,000.00,019.3,018.8,000.0,027.6,020.7,12.0,0002.2,0010.13,0017.17,0009.06
2024-01-19 19:16:00,SystemResetWarning,0834.4,5.00,000.00,019.4,018.8,000.0,027.6,020.6,11.8,0002.7,0010.11,0016.94,0009.08
2024-01-19 19:17:00,SystemResetWarning,0834.4,5.00,000.00,019.4,018.8,000.0,027.6,020.6,11.8,0002.6,0010.04,0016.47,0009.09
2024-01-19 19:18:00,SystemResetWarning,0834.4,5.00,000.00,019.4,018.8,000.0,027.6,020.7,11.8,0002.5,0010.06,0017.34,0009.09
2024-01-19 19:19:00,SystemResetWarning,0834.4,5.00,000.00,019.4,018.8,000.0,027.6,020.7,11.9,0002.3,0010.06,0017.50,0009.11
2024-01-19 19:20:00,SystemResetWarning,0834.4,5.00,000.00,019.4,018.8,000.0,027.6,020.7,11.8,0002.6,0010.08,0017.52,0009.15
2024-01-19 19:21:00,SystemResetWarning,0834.3,5.01,000.00,019.4,018.8,000.0,027.6,020.7,11.8,0002.6,0010.09,0017.59,0009.18
2024-01-19 19:22:00,SystemResetWarning,0834.3,5.00,000.00,019.4,018.8,000.0,027.6,020.7,11.8,0003.0,0010.13,0017.11,0009.20
2024-01-19 19:23:00,SystemResetWarning,0834.2,5.00,000.00,019.4,018.8,000.0,027.6,020.6,12.0,0003.1,0010.14,0017.85,0009.22
2024-01-19 19:24:00,SystemResetWarning,0834.3,5.00,000.00,019.4,018.8,000.0,027.6,020.6,11.9,0003.0,0010.13,0018.80,0009.20
2024-01-19 19:25:00,SystemResetWarning,0834.3,5.01,000.00,019.4,018.8,000.0,027.7,020.7,11.9,0003.0,0010.08,0018.11,0009.18
2024-01-19 19:26:00,SystemResetWarning,0834.2,5.00,000.00,019.4,018.8,000.0,027.7,020.7,12.1,0002.8,0010.07,0017.85,0009.18
2024-01-19 19:27:00,SystemResetWarning,0834.2,5.00,000.00,019.4,018.8,000.0,027.7,020.7,12.2,0002.3,0010.01,0018.04,0009.14
2024-01-19 19:28:00,SystemResetWarning,0834.1,5.00,000.00,019.4,018.8,000.0,027.7,020.7,12.1,0002.1,0010.03,0018.04,0009.13
2024-01-19 19:29:00,SystemResetWarning,0834.2,5.00,000.00,019.4,018.8,000.0,027.7,020.7,12.2,0002.3,0010.05,0017.72,0009.14
2024-01-19 19:30:00,SystemResetWarning,0834.1,5.00,000.00,019.4,018.8,000.0,027.7,020.7,12.0,0002.5,0010.07,0017.30,0009.14
2024-01-19 19:31:00,SystemResetWarning,0834.1,5.00,000.00,019.4,018.9,000.0,027.7,020.7,11.8,0002.6,0010.06,0017.44,0009.12
2024-01-19 19:32:00,SystemResetWarning,0834.1,5.01,000.00,019.4,018.9,000.0,027.7,020.7,11.9,0002.5,0010.05,0017.47,0009.10
2024-01-19 19:33:00,SystemResetWarning,0834.1,5.00,000.00,019.4,018.9,000.0,027.7,020.8,12.0,0002.3,0010.00,0017.34,0009.07
2024-01-19 19:34:00,SystemResetWarning,0834.1,5.00,000.00,019.5,018.9,000.0,027.7,020.8,11.9,0002.1,0009.97,0016.47,0009.04
2024-01-19 19:35:00,SystemResetWarning,0834.1,5.00,000.00,019.5,018.9,000.0,027.7,020.8,12.0,0002.0,0010.02,0015.85,0009.05
2024-01-19 19:36:00,SystemResetWarning,0834.1,5.00,000.00,019.5,018.9,000.0,027.7,020.8,12.1,0001.8,0009.96,0015.64,0009.02
2024-01-19 19:37:00,SystemResetWarning,0834.1,5.00,000.00,019.5,018.9,000.0,027.7,020.8,12.0,0002.0,0009.91,0015.45,0009.00
2024-01-19 19:38:00,SystemResetWarning,0834.0,5.00,000.00,019.5,018.9,000.0,027.7,020.8,12.1,0002.2,0009.89,0015.21,0008.98
2024-01-19 19:39:00,SystemResetWarning,0834.0,5.00,000.00,019.5,018.9,000.0,027.7,020.8,12.1,0002.2,0009.88,0015.52,0008.96
2024-01-19 19:40:00,SystemResetWarning,0834.0,5.00,000.00,019.5,019.0,000.0,027.7,020.8,11.9,0001.9,0009.80,0015.18,0008.94
2024-01-19 19:41:00,SystemResetWarning,0834.0,5.00,000.00,019.5,019.0,000.0,027.7,020.9,11.9,0001.4,0009.72,0014.82,0008.91
2024-01-19 19:42:00,SystemResetWarning,0834.0,5.00,000.00,019.5,019.0,000.0,027.8,020.9,12.1,0001.0,0009.64,0014.70,0008.86
2024-01-19 19:43:00,SystemResetWarning,0834.0,5.00,000.00,019.5,019.0,000.0,027.8,020.9,12.0,0000.9,0009.62,0014.73,0008.83
2024-01-19 19:44:00,SystemResetWarning,0833.9,5.00,000.00,019.6,019.0,000.0,027.8,020.9,11.9,0001.1,0009.61,0015.35,0008.79
2024-01-19 19:45:00,SystemResetWarning,0834.0,5.00,000.00,019.6,019.0,000.0,027.8,020.9,11.8,0001.0,0009.58,0015.71,0008.74
2024-01-19 19:46:00,SystemResetWarning,0834.0,5.00,000.00,019.6,019.0,000.0,027.8,021.0,11.9,0001.1,0009.52,0015.38,0008.70
2024-01-19 19:47:00,SystemResetWarning,0834.0,4.99,000.00,019.6,019.0,000.0,027.8,020.9,11.9,0000.5,0009.51,0015.41,0008.69
2024-01-19 19:48:00,SystemResetWarning,0833.9,5.00,000.00,019.6,019.0,000.0,027.8,021.0,11.8,-000.0,0009.50,0016.01,0008.67
2024-01-19 19:49:00,SystemResetWarning,0833.9,5.00,000.00,019.6,019.1,000.0,027.8,021.0,11.9,-000.2,0009.47,0016.13,0008.63
2024-01-19 19:50:00,SystemResetWarning,0834.0,5.00,000.00,019.6,019.1,000.0,027.8,021.0,11.9,0000.7,0009.39,0015.70,0008.57
2024-01-19 19:51:00,SystemResetWarning,0833.9,5.00,000.00,019.6,019.1,000.0,027.9,021.0,11.9,0001.3,0009.35,0016.31,0008.52
2024-01-19 19:52:00,SystemResetWarning,0833.9,5.00,000.00,019.7,019.1,000.0,027.9,021.0,11.8,0001.7,0009.34,0016.63,0008.48
2024-01-19 19:53:00,SystemResetWarning,0834.0,5.00,000.00,019.7,019.1,000.0,027.9,021.0,11.9,0002.1,0009.34,0016.58,0008.46
2024-01-19 19:54:00,SystemResetWarning,0833.8,4.99,000.00,019.7,019.1,000.0,027.9,021.1,12.1,0002.0,0009.29,0016.53,0008.43
2024-01-19 19:55:00,SystemResetWarning,0833.8,5.00,000.00,019.7,019.2,000.0,027.9,021.1,12.0,0001.8,0009.20,0015.54,0008.42
2024-01-19 19:56:00,SystemResetWarning,0833.7,5.01,000.00,019.7,019.2,000.0,027.9,021.1,11.9,0002.1,0009.16,0014.95,0008.41
2024-01-19 19:57:00,SystemResetWarning,0833.8,5.00,000.00,019.7,019.2,000.0,027.9,021.1,11.8,0001.8,0009.13,0014.85,0008.41
2024-01-19 19:58:00,SystemResetWarning,0833.8,5.00,000.00,019.7,019.2,000.0,027.9,021.1,12.0,0002.0,0009.13,0015.06,0008.40
2024-01-19 19:59:00,SystemResetWarning,0833.8,5.00,000.00,019.8,019.2,000.0,028.0,021.1,11.9,0002.2,0009.07,0015.34,0008.36
